This is the latest recevied weather packets stored in our database for station/object KC7WRB. If no packets are shown the sender has not sent any weather packets the latest 10 day(s).
| Time | Temp. | Humidity | Pressure | Rain* | Wind** | Luminosity | Snow |
|---|---|---|---|---|---|---|---|
| 1777698449 | 13.89° C | 23% | 1016.8 hPa | 0 mm | - | 0 W/m² | - |
| 1777698145 | 13.89° C | 23% | 1016.9 hPa | 0 mm | - | 0 W/m² | - |
| 1777697842 | 15° C | 22% | 1017 hPa | 0 mm | - | 0 W/m² | - |
| 1777697539 | 15° C | 20% | 1017 hPa | 0 mm | - | 0 W/m² | - |
| 1777697236 | 14.44° C | 21% | 1016.9 hPa | 0 mm | - | 0 W/m² | - |
| 1777696932 | 14.44° C | 21% | 1017 hPa | 0 mm | - | 0 W/m² | - |
| 1777696630 | 14.44° C | 21% | 1016.8 hPa | 0 mm | - | 0 W/m² | - |
| 1777696327 | 14.44° C | 21% | 1016.7 hPa | 0 mm | - | 0 W/m² | - |
| 1777696027 | 15° C | 20% | 1016.7 hPa | 0 mm | - | 0 W/m² | - |
| 1777695724 | 15° C | 20% | 1016.5 hPa | 0 mm | - | 0 W/m² | - |
| 1777695421 | 15.56° C | 20% | 1016.7 hPa | 0 mm | - | 0 W/m² | - |
| 1777695118 | 15.56° C | 20% | 1016.8 hPa | 0 mm | - | 0 W/m² | - |
| 1777694815 | 15.56° C | 19% | 1016.4 hPa | 0 mm | - | 0 W/m² | - |
| 1777694513 | 15.56° C | 20% | 1016.5 hPa | 0 mm | - | 0 W/m² | - |
| 1777694209 | 15.56° C | 19% | 1016.4 hPa | 0 mm | - | 0 W/m² | - |
| 1777693905 | 15.56° C | 19% | 1016.5 hPa | 0 mm | - | 0 W/m² | - |
| 1777693603 | 16.11° C | 19% | 1016.4 hPa | 0 mm | - | 0 W/m² | - |
| 1777693302 | 16.11° C | 19% | 1016.2 hPa | 0 mm | - | 0 W/m² | - |
| 1777692999 | 16.11° C | 19% | 1016 hPa | 0 mm | - | 0 W/m² | - |
| 1777692697 | 16.67° C | 19% | 1016.1 hPa | 0 mm | - | 0 W/m² | - |
| 1777692392 | 17.22° C | 18% | 1015.9 hPa | 0 mm | - | 0 W/m² | - |
| 1777692089 | 16.67° C | 17% | 1016.1 hPa | 0 mm | - | 0 W/m² | - |
| 1777691787 | 18.33° C | 15% | 1015.7 hPa | 0 mm | - | 0 W/m² | - |
| 1777691485 | 18.89° C | 13% | 1016 hPa | 0 mm | - | 0 W/m² | - |
| 1777691184 | 18.89° C | 13% | 1015.9 hPa | 0 mm | - | 0 W/m² | - |
* Rain latest hour (hover to see other rain measurements)
** Current wind speed in m/s (hover to see current wind gust speed)